Content
SEND FEEDBACK

Daily
Averages
Monthly
Summary
Canada

QUEBEC CITY AIRPORT, QUEBEC


Home > North America > Canada > Quebec
Elevation: 244 feet     Latitude: 46 48N     Longitude: 71 23W

WEATHER
 
SELECT A DAY
Number of Records: 192,115;   Date Range: 6/30/96 - 7/30/14
 
SHARE

PRINT THIS DATA

[ ← Previous Day ]
WEATHER ALMANAC - JANUARY 11, 2014
[ Next Day → ]
[ °C ]   °F
Weather ElementAverageHighLow
Temperature27.9 °F33 °F (7:00 pm)18 °F (1:00 am)
Dewpoint26 °F32 °F (4:00 pm)15.8 °F (1:00 am)
Humidity91.9 %100 % (11:00 am)80 % (7:53 am)
Barometer29.63 in30.19 in (1:00 am)29.04 in (11:31 pm)
Wind Speed7.8 mph17.3 mph (10:00 am)
Wind Gust24.2 mph (10:00 am)
Weather ElementAverage
Visibility3.6 mi
Wind DirectionENE (54.7 °)

Weather ElementTotal
Precipitation---
Heating Degree Days39.5 (Base 65)
Averaged from 38 records on January 11, 2014
WEATHER CONDITIONS BREAKOUT
WIND DIRECTION BREAKOUT
WEATHER BY HOUR - JANUARY 11, 2014
[ °C ]   °F
Local TimeTemperatureDewpointHumidityBarometerVisibilityWind DirectionWind SpeedGust SpeedPrecipitationEventsConditions
1:00 AM18.0 °F16.0 °F88 %30.19 inCalm
1:00 AM19.4 °F15.8 °F86 %30.19 in12.0 miNNE (20°)2.3 mphOvercast
2:00 AM19.4 °F15.8 °F86 %30.18 in12.0 miNE (40°)3.5 mphOvercast
3:00 AM19.4 °F15.8 °F86 %30.16 in12.0 miNE (40°)5.8 mphOvercast
4:00 AM21.0 °F19.0 °F87 %30.11 inNNE (20°)1.2 mph
4:00 AM19.4 °F15.8 °F86 %30.11 in12.0 miNNE (20°)4.6 mphOvercast
5:00 AM21.2 °F17.6 °F86 %30.07 in10.0 miNNE (30°)4.6 mphOvercast
6:00 AM23.0 °F19.4 °F86 %30.02 in10.0 miNE (40°)8.1 mphOvercast
7:00 AM23.0 °F19.4 °F86 %29.95 in7.0 miNE (50°)5.8 mphOvercast
7:00 AM24.0 °F21.0 °F82 %29.94 inENE (70°)2.3 mph
7:53 AM26.6 °F21.2 °F80 %29.90 in2.5 miENE (60°)11.5 mphLight Ice Pellets
8:00 AM26.6 °F23.0 °F86 %29.86 in2.2 miENE (60°)15.0 mphRainLight Freezing Rain
8:23 AM26.6 °F23.0 °F86 %29.86 in4.0 miEast (80°)11.5 mph18.4 mphRainLight Freezing Rain
9:00 AM26.6 °F24.8 °F93 %29.84 in1.5 miENE (70°)10.4 mph19.6 mphRainLight Freezing Rain
9:32 AM28.4 °F26.6 °F93 %29.80 in1.5 miENE (60°)13.8 mphRainLight Freezing Rain
10:00 AM29.0 °F28.0 °F94 %29.76 inEast (80°)5.8 mph
10:00 AM28.4 °F26.6 °F93 %29.76 in0.8 miENE (60°)17.3 mph24.2 mphRainLight Freezing Rain
10:22 AM28.4 °F26.6 °F93 %29.74 in0.5 miENE (60°)17.3 mphFog-RainLight Freezing Rain
11:00 AM28.4 °F28.4 °F100 %29.69 in0.5 miENE (70°)10.4 mphFog-RainLight Freezing Rain
12:00 PM30.2 °F28.4 °F93 %29.61 in2.0 miENE (60°)16.1 mphRainLight Freezing Rain
12:19 PM30.2 °F30.2 °F100 %29.58 in2.0 miENE (70°)11.5 mphOvercast
1:00 PM32.0 °F31.0 °F93 %29.52 inENE (60°)2.3 mph
1:00 PM30.2 °F30.2 °F100 %29.52 in2.0 miENE (60°)12.7 mphOvercast
1:47 PM32.0 °F30.2 °F93 %29.49 in1.0 miNE (50°)11.5 mphRainLight Rain
2:00 PM32.0 °F30.2 °F93 %29.48 in1.0 miENE (60°)9.2 mphRainLight Rain
3:00 PM32.0 °F30.2 °F93 %29.44 in0.8 miENE (60°)9.2 mphRainLight Rain
4:00 PM32.0 °F32.0 °F98 %29.39 inENE (60°)1.2 mph
4:00 PM32.0 °F30.2 °F93 %29.39 in0.8 miNE (50°)9.2 mphRainLight Rain
5:00 PM32.0 °F30.2 °F93 %29.34 in0.8 miENE (60°)8.1 mphRainLight Rain
6:00 PM32.0 °F30.2 °F93 %29.29 in1.8 miENE (70°)8.1 mph18.4 mphRainLight Rain
7:00 PM33.0 °F32.0 °F93 %29.22 inENE (70°)1.2 mph
7:00 PM32.0 °F30.2 °F93 %29.23 in1.5 miENE (60°)9.2 mphRainLight Rain
8:00 PM32.0 °F30.2 °F93 %29.18 in0.8 miENE (60°)10.4 mphOvercast
9:00 PM32.0 °F32.0 °F100 %29.12 in0.8 miNE (50°)8.1 mphOvercast
10:00 PM33.0 °F32.0 °F96 %29.05 inCalm
10:00 PM32.0 °F32.0 °F100 %29.05 in0.8 miNE (40°)10.4 mphMist
11:00 PM32.0 °F32.0 °F100 %29.05 in1.0 miNE (50°)3.5 mphRainLight Rain
11:31 PM32.0 °F32.0 °F100 %29.04 in2.0 miNE (50°)3.5 mphRainLight Rain
Hourly data recorded from CYQB, located miles away from Quebec City Airport, Quebec







STORIES FROM OUR PARTNERS